Regional Weather Roundup
Issued by NWS Charleston, SC

Current Version | Previous Version | Graphics & Text | Print | Product List | Glossary On
Versions: 1 2 3 4 5 6 7 8 9 10 11 12 13 14 15 16 17 18 19 20 21 22 23 24 25 26 27 28 29 30 31 32 33 34 35 36 37 38 39 40 41 42 43 44 45 46 47 48 49 50
196 ASUS42 KCHS 210827 RWRCHS REGIONAL WEATHER ROUNDUP NATIONAL WEATHER SERVICE CHARLESTON SC 300 AM EST TUE FEB 21 2017 NOTE: "FAIR" INDICATES FEW OR NO CLOUDS BELOW 12,000 FEET WITH NO SIGNIFICANT WEATHER AND/OR OBSTRUCTIONS TO VISIBILITY. NOT ALL STATIONS ARE QUALITY CONTROLLED. USE DATA WITH CAUTION... ESPECIALLY DEWPOINT OBSERVATIONS. SCZ027-030-031-034>040-042>050-210900- ...SOUTHEAST SOUTH CAROLINA... CITY SKY/WX TMP DP RH WIND PRES REMARKS N CHARLESTON FOG 54 53 97 NE6 30.17S VSB 1/4 WATERFRONT PRK N/A 58 58 100 VRB3 30.16S MOUNT PLEASANT LGT RAIN 52 52 100 CALM 30.17F JOHNS ISLAND FAIR 55 55 100 CALM 30.17S FOG PINOPOLIS N/A 55 55 100 VRB2 30.10S MONCKS CORNER FAIR 52 50 93 NE3 30.18S SUMMERVILLE PTSUNNY 50 50 100 CALM 30.18S BEAUFORT MCAS CLOUDY 55 54 96 CALM 30.15F BEAUFORT ARPT FAIR 57 55 94 NE5 30.14F HILTON HEAD IS MOCLDY 57 57 100 NE5 30.15F WALTERBORO CLOUDY 48 46 93 CALM 30.17S ALLENDALE FAIR 54 50 87 CALM 30.15F ...SOUTHERN MIDLANDS AND PEE DEE... CITY SKY/WX TMP DP RH WIND PRES REMARKS GEORGETOWN FAIR 50 50 100 CALM 30.20R KINGSTREE FAIR 46 45 93 CALM 30.19F ORANGEBURG MOCLDY 50 47 89 E3 30.18S BARNWELL FAIR 54 50 87 CALM 30.16F AIKEN FAIR 46 45 93 NE3 30.20S MANNING FAIR 48 39 71 MISG 30.19F COLUMBIA CLOUDY 50 45 83 CALM 30.17F SUMTER CLOUDY 49 46 88 NE6 30.18S FLORENCE PTCLDY 51 47 86 E3 30.21S MYRTLE BEACH NOT AVBL N MYRTLE BEACH CLOUDY 54 49 83 NE8 30.20F $$ GAZ063-065-086>088-099>101-113>116-118-119-134>141-150-210900- ...SOUTHEAST GEORGIA... CITY SKY/WX TMP DP RH WIND PRES REMARKS SAVANNAH ARPT CLOUDY 55 52 89 CALM 30.15F HUNTER AAF MOCLDY 58 58 100 CALM 30.12F FORT STEWART MOCLDY 53 51 94 CALM 30.12S STATESBORO CLOUDY 51 51 100 CALM 30.15S SYLVANIA CLOUDY N/A N/A N/A CALM 30.16S CLAXTON FAIR N/A N/A N/A NE3 30.14F ...CSRA...CENTRAL AND FAR SOUTHEAST GEORGIA... CITY SKY/WX TMP DP RH WIND PRES REMARKS THOMSON CLOUDY 49 49 99 CALM 30.20S AUGUSTA-BUSH MOCLDY 51 46 83 CALM 30.16F HAZE AUGUSTA-DANIEL CLOUDY 58 45 62 SE5 30.16F SWAINSBORO FAIR 55 48 76 E6 30.14S VIDALIA MOCLDY 55 54 94 CALM 30.14S EASTMAN FAIR 51 51 100 CALM 30.15S HAZLEHURST FAIR 55 51 87 CALM 30.12S ALMA PTCLDY 50 49 96 CALM 30.12F WAYCROSS PTCLDY 54 54 100 CALM 30.12S JESUP FAIR 52 48 87 CALM 30.13S BAXLEY FAIR 52 52 100 CALM 30.12F BRUNSWICK PTCLDY 54 54 100 CALM 30.13S SAINT SIMONS PTCLDY 63 61 93 NE5 30.12S $$ SCZ027-028-034-036>038-045-046-048>050-GAZ119-141-210900- ...LAKE AND SUPPLEMENTAL COASTAL OBSERVATIONS... STATION/POSITION TIME TEMP WIND PRES WAVE SWELL AIR SEA DIR/SP/G HT/PER HT/PER/DIR (UTC) (F) (DEG/KT/KT) (MB) (FT/S) (FT/S/D) WINYAH BAY 0745 58 50/ 6 1022.0S LAKE MURRAY 0750 54 CALM / 2 1021.3S ACE BASIN NERRS 0730 55 CALM 1021.0S FORT PULASKI 0800 61 60 60/ 8/ 9 1020.8 SAPELO ISLAND 0800 63 80/ 5 1020.0 $$ ANZ835-935-AMZ111-154-330-350-352-354-370-450-454-472-210900- ...C-MAN AND BUOY OBSERVATIONS... STATION/POSITION TIME TEMP WIND PRES WAVE SWELL AIR SEA DIR/SP/G HT/PER HT/PER/DIR (UTC) (F) (DEG/KT/KT) (MB) (FT/S) (FT/S/D) BUOY 41004 0750 68 66 80/ 14/ 16 1020.4F 2/ 4 BUOY 41008 0750 63 62 70/ 8/ 8 1019.6F 1/ 5 2/100/ 5 FOLLY BEACH CMAN 0800 59 40/ 9/ 10 1021.7F CAPERS NEARSHORE 0708 59 59 50/ 8/ 10 1021.4F FRIPP NEARSHORE 0808 61 60 50/ 8/ 10 1020.4F STATION/POSITION TIME TEMP WIND PRES WAVE SWELL AIR SEA DIR/SP/G HT/PER HT/PER/DIR (UTC) (F) (DEG/KT/KT) (MB) (FT/S) (FT/S/D) 5E ST. MARYS GA 0800 64 N/A 1/ 5 FRYING PAN BUOY 0810 67 66 60/ 16/ 17 1022.0 BUOY 41025 0750 61 76 40/ 16/ 21 1022.8F 7/ 9 5/ 70/ 9 CAPE LOOKOUT NC 0800 53 20/ 12/ 14 1023.2F BUOY 41002 0750 67 71 40/ 17/ 21 1019.9F 5/ 6 BUOY 41010 NOT AVBL ST AUGUSTINE FL 0800 67 67 80/ 7/ 7 1020.0F $$

USA.gov is the U.S. government's official web portal to all federal, state and local government web resources and services.